PDA006 LCLK-UKWW

Flight info

Callsign PDA006
Flight time 2h 24m
Altitude 34000
Route RUDER M13 BAPAX L620 VESAR UB545 MUT UL621 BUK UM861 RAKUR/K0832F340 M856 DIGAM P156 ODESE M854 ODSAN P156 NIROV
Aircraft A321/M-SDE3FGHIJ4RWY/LB1

Departure

Time 2026-04-27 10:58
Airport Larnaca International Airport (LCLK)

Arrival

Time 2026-04-27 13:22
Airport Vinnytsia/Gavyryshivka International Airport (UKWW)
Time Latitude Longitude Altitude Speed Heading
2026-04-27 10:33 34.86925 33.60708 21 ft 0 kts 340°
2026-04-27 10:48 34.86907 33.60716 23 ft 3 kts 345°
2026-04-27 10:49 34.86888 33.60721 21 ft 3 kts 355°
2026-04-27 10:49 34.86868 33.60721 23 ft 3 kts 12°
2026-04-27 10:49 34.86851 33.60713 23 ft 3 kts 41°
2026-04-27 10:49 34.86848 33.60710 24 ft 0 kts 44°
2026-04-27 10:51 34.86858 33.60723 22 ft 4 kts 46°
2026-04-27 10:51 34.86870 33.60776 20 ft 9 kts 93°
2026-04-27 10:52 34.86825 33.60852 20 ft 14 kts 136°
2026-04-27 10:52 34.86746 33.60946 20 ft 18 kts 135°
2026-04-27 10:52 34.86655 33.61056 20 ft 15 kts 135°
2026-04-27 10:52 34.86658 33.61154 21 ft 13 kts 48°
2026-04-27 10:53 34.86725 33.61237 20 ft 15 kts 45°
2026-04-27 10:53 34.86909 33.61464 21 ft 23 kts 45°
2026-04-27 10:53 34.87035 33.61617 22 ft 28 kts 45°
2026-04-27 10:54 34.87176 33.61792 20 ft 29 kts 46°
2026-04-27 10:54 34.87319 33.61966 21 ft 29 kts 44°
2026-04-27 10:54 34.87459 33.62136 20 ft 29 kts 45°
2026-04-27 10:54 34.87598 33.62308 20 ft 28 kts 45°
2026-04-27 10:55 34.87736 33.62477 20 ft 28 kts 45°
2026-04-27 10:55 34.87874 33.62643 22 ft 28 kts 45°
2026-04-27 10:55 34.88010 33.62809 20 ft 28 kts 45°
2026-04-27 10:55 34.88144 33.62973 20 ft 27 kts 45°
2026-04-27 10:56 34.88277 33.63137 20 ft 27 kts 45°
2026-04-27 10:56 34.88399 33.63284 20 ft 19 kts 44°
2026-04-27 10:56 34.88436 33.63389 20 ft 13 kts 115°
2026-04-27 10:56 34.88373 33.63472 20 ft 13 kts 135°
2026-04-27 10:57 34.88297 33.63518 20 ft 13 kts 203°
2026-04-27 10:57 34.88225 33.63435 19 ft 18 kts 225°
2026-04-27 10:57 34.87994 33.63153 21 ft 80 kts 225°
2026-04-27 10:57 34.87454 33.62494 20 ft 138 kts 225°
2026-04-27 10:58 34.86665 33.61550 166 ft 170 kts 223°
2026-04-27 10:58 34.85815 33.60535 783 ft 173 kts 222°
2026-04-27 10:58 34.84925 33.59479 1320 ft 186 kts 225°
2026-04-27 10:58 34.83969 33.58329 1527 ft 206 kts 225°
2026-04-27 10:59 34.82911 33.57018 1696 ft 228 kts 226°
2026-04-27 10:59 34.81622 33.55752 1880 ft 250 kts 202°
2026-04-27 10:59 34.79854 33.55542 2125 ft 262 kts 161°
2026-04-27 11:00 34.76992 33.58101 3494 ft 259 kts 132°
2026-04-27 11:00 34.75772 33.59707 4242 ft 259 kts 133°
2026-04-27 11:00 34.74527 33.61292 4937 ft 261 kts 135°
2026-04-27 11:00 34.73221 33.62837 5600 ft 263 kts 138°
2026-04-27 11:01 34.71862 33.64343 6266 ft 266 kts 140°
2026-04-27 11:01 34.70466 33.65822 6929 ft 267 kts 142°
2026-04-27 11:01 34.69046 33.67282 7586 ft 268 kts 143°
2026-04-27 11:01 34.67608 33.68733 8234 ft 270 kts 144°
2026-04-27 11:02 34.66153 33.70186 8886 ft 272 kts 144°
2026-04-27 11:02 34.64753 33.71755 9502 ft 278 kts 133°
2026-04-27 11:02 34.63782 33.73829 10102 ft 291 kts 114°
2026-04-27 11:02 34.63431 33.76313 10432 ft 314 kts 93°
2026-04-27 11:03 34.63917 33.79017 10555 ft 343 kts 72°
2026-04-27 11:03 34.64843 33.81775 10699 ft 362 kts 71°
2026-04-27 11:03 34.65816 33.84660 11006 ft 374 kts 71°
2026-04-27 11:03 34.66804 33.87605 11496 ft 379 kts 71°
2026-04-27 11:04 34.67800 33.90590 12019 ft 383 kts 71°
2026-04-27 11:04 34.68784 33.93567 12543 ft 387 kts 71°
2026-04-27 11:04 34.69789 33.96637 13087 ft 391 kts 71°
2026-04-27 11:04 34.70793 33.99721 13614 ft 396 kts 71°
2026-04-27 11:05 34.71832 34.02851 14117 ft 401 kts 68°
2026-04-27 11:05 34.73289 34.05759 14616 ft 407 kts 52°
2026-04-27 11:05 34.75292 34.08204 15142 ft 410 kts 38°
2026-04-27 11:05 34.77715 34.10016 15674 ft 411 kts 23°
2026-04-27 11:06 34.80426 34.11095 16221 ft 410 kts
2026-04-27 11:06 34.83249 34.11457 16769 ft 409 kts
2026-04-27 11:06 34.86096 34.11697 17316 ft 411 kts
2026-04-27 11:06 34.88960 34.11941 17838 ft 414 kts
2026-04-27 11:07 34.91835 34.12188 18350 ft 416 kts
2026-04-27 11:07 34.94734 34.12442 18803 ft 418 kts
2026-04-27 11:07 34.97647 34.12689 19256 ft 421 kts
2026-04-27 11:07 35.00577 34.12902 19719 ft 423 kts
2026-04-27 11:08 35.03487 34.13083 20178 ft 425 kts
2026-04-27 11:08 35.06448 34.13253 20637 ft 427 kts
2026-04-27 11:08 35.09413 34.13423 21087 ft 429 kts
2026-04-27 11:08 35.12413 34.13604 21523 ft 431 kts
2026-04-27 11:09 35.15418 34.13793 21946 ft 433 kts
2026-04-27 11:09 35.18447 34.13991 22380 ft 435 kts
2026-04-27 11:09 35.21476 34.14191 22801 ft 437 kts
2026-04-27 11:09 35.24515 34.14393 23199 ft 439 kts
2026-04-27 11:10 35.27573 34.14597 23578 ft 441 kts
2026-04-27 11:10 35.30646 34.14801 23910 ft 443 kts
2026-04-27 11:10 35.33725 34.15008 24242 ft 445 kts
2026-04-27 11:10 35.36827 34.15216 24565 ft 447 kts
2026-04-27 11:11 35.39935 34.15422 24877 ft 449 kts
2026-04-27 11:11 35.43058 34.15627 25209 ft 450 kts
2026-04-27 11:11 35.45136 34.15764 25425 ft 452 kts
2026-04-27 11:11 35.49351 34.16044 25844 ft 455 kts
2026-04-27 11:12 35.51448 34.16183 26047 ft 456 kts
2026-04-27 11:12 35.55657 34.16460 26454 ft 459 kts
2026-04-27 11:12 35.58860 34.16670 26750 ft 461 kts
2026-04-27 11:12 35.62065 34.16879 27040 ft 463 kts
2026-04-27 11:13 35.65292 34.17025 27318 ft 464 kts 357°
2026-04-27 11:13 35.68505 34.16647 27601 ft 464 kts 348°
2026-04-27 11:13 35.70590 34.16060 27781 ft 463 kts 341°
2026-04-27 11:13 35.73580 34.14621 28048 ft 461 kts 329°
2026-04-27 11:14 35.76349 34.12614 28310 ft 462 kts 327°
2026-04-27 11:14 35.79092 34.10590 28592 ft 464 kts 327°
2026-04-27 11:14 35.81881 34.08524 28878 ft 465 kts 326°
2026-04-27 11:14 35.84657 34.06456 29160 ft 467 kts 326°
2026-04-27 11:15 35.87436 34.04375 29436 ft 469 kts 326°
2026-04-27 11:15 35.90231 34.02277 29768 ft 469 kts 326°
2026-04-27 11:15 35.93014 34.00184 29953 ft 469 kts 326°
2026-04-27 11:15 35.95802 33.98086 29978 ft 468 kts 326°
2026-04-27 11:16 36.01363 33.93903 29976 ft 468 kts 326°
2026-04-27 11:16 36.06928 33.89720 29977 ft 468 kts 326°
2026-04-27 11:17 36.09716 33.87623 30209 ft 469 kts 326°
2026-04-27 11:17 36.12498 33.85526 30554 ft 467 kts 326°
2026-04-27 11:17 36.15241 33.83453 30916 ft 466 kts 326°
2026-04-27 11:17 36.17998 33.81366 31260 ft 464 kts 326°
2026-04-27 11:18 36.20749 33.79286 31593 ft 463 kts 327°
2026-04-27 11:18 36.23491 33.77212 31934 ft 461 kts 327°
2026-04-27 11:18 36.26222 33.75145 32288 ft 459 kts 327°
2026-04-27 11:18 36.28944 33.73081 32626 ft 458 kts 327°
2026-04-27 11:19 36.31656 33.71024 32937 ft 457 kts 327°
2026-04-27 11:19 36.34361 33.68969 33261 ft 455 kts 327°
2026-04-27 11:19 36.37055 33.66919 33582 ft 453 kts 327°
2026-04-27 11:19 36.39739 33.64879 33860 ft 452 kts 327°
2026-04-27 11:20 36.42424 33.62837 33980 ft 451 kts 327°
2026-04-27 11:20 36.45091 33.60805 33999 ft 450 kts 327°
2026-04-27 11:20 36.50411 33.56738 34001 ft 448 kts 327°
2026-04-27 11:21 36.55720 33.52687 34004 ft 448 kts 327°
2026-04-27 11:21 36.61026 33.48636 34002 ft 447 kts 327°
2026-04-27 11:22 36.66315 33.44572 34018 ft 447 kts 327°
2026-04-27 11:22 36.71612 33.40504 34027 ft 447 kts 327°
2026-04-27 11:23 36.76869 33.36462 34040 ft 447 kts 327°
2026-04-27 11:23 36.82161 33.32387 34052 ft 447 kts 328°
2026-04-27 11:24 36.87918 33.29502 34058 ft 449 kts 347°
2026-04-27 11:24 36.94134 33.28783 34065 ft 450 kts 356°
2026-04-27 11:25 37.00397 33.28446 34066 ft 451 kts 356°
2026-04-27 11:25 37.06659 33.28102 34070 ft 451 kts 356°
2026-04-27 11:26 37.12935 33.27765 34080 ft 451 kts 356°
2026-04-27 11:26 37.19205 33.27430 34083 ft 451 kts 356°
2026-04-27 11:27 37.25482 33.27089 34086 ft 451 kts 356°
2026-04-27 11:27 37.31748 33.26746 34087 ft 451 kts 356°
2026-04-27 11:28 37.37973 33.26412 34088 ft 450 kts 356°
2026-04-27 11:28 37.44271 33.26084 34087 ft 450 kts 356°
2026-04-27 11:29 37.50484 33.25752 34091 ft 450 kts 356°
2026-04-27 11:29 37.56732 33.25412 34091 ft 449 kts 356°
2026-04-27 11:30 37.62983 33.25068 34096 ft 449 kts 356°
2026-04-27 11:30 37.69227 33.24738 34098 ft 449 kts 356°
2026-04-27 11:31 37.75473 33.24403 34097 ft 449 kts 356°
2026-04-27 11:31 37.81714 33.24051 34100 ft 449 kts 356°
2026-04-27 11:32 37.87960 33.23708 34103 ft 449 kts 356°
2026-04-27 11:32 37.94211 33.23369 34110 ft 449 kts 356°
2026-04-27 11:33 38.00455 33.23032 34105 ft 448 kts 356°
2026-04-27 11:33 38.06677 33.22686 34127 ft 447 kts 356°
2026-04-27 11:34 38.12878 33.22339 34132 ft 446 kts 356°
2026-04-27 11:34 38.19069 33.22004 34131 ft 445 kts 356°
2026-04-27 11:35 38.25215 33.21677 34129 ft 445 kts 356°
2026-04-27 11:35 38.31400 33.21346 34131 ft 445 kts 356°
2026-04-27 11:36 38.37585 33.21012 34127 ft 445 kts 356°
2026-04-27 11:36 38.43765 33.20667 34125 ft 445 kts 356°
2026-04-27 11:37 38.49959 33.20322 34130 ft 445 kts 356°
2026-04-27 11:37 38.56151 33.19981 34128 ft 446 kts 356°
2026-04-27 11:38 38.62347 33.19637 34131 ft 446 kts 356°
2026-04-27 11:38 38.68544 33.19287 34129 ft 446 kts 356°
2026-04-27 11:39 38.74744 33.18940 34134 ft 446 kts 356°
2026-04-27 11:39 38.80947 33.18607 34129 ft 446 kts 356°
2026-04-27 11:40 38.87111 33.18267 34128 ft 446 kts 356°
2026-04-27 11:40 38.93307 33.17921 34129 ft 446 kts 356°
2026-04-27 11:41 38.99516 33.17578 34131 ft 446 kts 356°
2026-04-27 11:41 39.05715 33.17237 34127 ft 446 kts 356°
2026-04-27 11:42 39.11919 33.16887 34134 ft 446 kts 356°
2026-04-27 11:42 39.18119 33.16543 34133 ft 446 kts 356°
2026-04-27 11:43 39.24318 33.16196 34129 ft 446 kts 356°
2026-04-27 11:43 39.30512 33.15852 34136 ft 446 kts 356°
2026-04-27 11:44 39.36712 33.15499 34133 ft 445 kts 356°
2026-04-27 11:44 39.42900 33.15150 34134 ft 445 kts 356°
2026-04-27 11:45 39.48047 33.14861 34139 ft 445 kts 356°
2026-04-27 11:45 39.55230 33.14444 34140 ft 444 kts 356°
2026-04-27 11:46 39.61405 33.14090 34144 ft 444 kts 356°
2026-04-27 11:46 39.67578 33.13744 34141 ft 444 kts 356°
2026-04-27 11:47 39.73742 33.13387 34142 ft 443 kts 356°
2026-04-27 11:47 39.79891 33.13030 34140 ft 443 kts 356°
2026-04-27 11:48 39.86045 33.12682 34141 ft 442 kts 356°
2026-04-27 11:48 39.92192 33.12342 34137 ft 442 kts 356°
2026-04-27 11:49 39.98335 33.11986 34137 ft 442 kts 356°
2026-04-27 11:49 40.04473 33.11632 34133 ft 441 kts 356°
2026-04-27 11:50 40.10610 33.11281 34125 ft 441 kts 356°
2026-04-27 11:50 40.16748 33.10925 34125 ft 442 kts 356°
2026-04-27 11:51 40.22884 33.10500 34126 ft 441 kts 351°
2026-04-27 11:51 40.28754 33.08514 34127 ft 439 kts 340°
2026-04-27 11:52 40.31656 33.07239 34128 ft 440 kts 340°
2026-04-27 11:52 40.37462 33.04706 34136 ft 440 kts 340°
2026-04-27 11:53 40.43282 33.02175 34149 ft 440 kts 340°
2026-04-27 11:53 40.49099 32.99646 34163 ft 440 kts 340°
2026-04-27 11:54 40.54906 32.97107 34174 ft 440 kts 340°
2026-04-27 11:54 40.60705 32.94554 34186 ft 439 kts 339°
2026-04-27 11:55 40.66485 32.92009 34189 ft 438 kts 340°
2026-04-27 11:55 40.72227 32.89482 34198 ft 437 kts 339°
2026-04-27 11:56 40.77995 32.86946 34205 ft 437 kts 339°
2026-04-27 11:56 40.83760 32.84400 34207 ft 437 kts 339°
2026-04-27 11:57 40.89521 32.81841 34212 ft 437 kts 339°
2026-04-27 11:57 40.95288 32.79278 34214 ft 437 kts 339°
2026-04-27 11:58 41.01056 32.76716 34218 ft 438 kts 339°
2026-04-27 11:58 41.06836 32.74148 34223 ft 438 kts 339°
2026-04-27 11:59 41.12623 32.71562 34231 ft 439 kts 339°
2026-04-27 11:59 41.18417 32.68977 34240 ft 440 kts 339°
2026-04-27 12:00 41.24220 32.66380 34252 ft 440 kts 339°
2026-04-27 12:00 41.30021 32.63772 34257 ft 440 kts 338°
2026-04-27 12:01 41.35821 32.61161 34265 ft 440 kts 338°
2026-04-27 12:01 41.41624 32.58549 34277 ft 440 kts 338°
2026-04-27 12:02 41.47382 32.55956 34280 ft 440 kts 338°
2026-04-27 12:02 41.53175 32.53342 34299 ft 439 kts 338°
2026-04-27 12:03 41.58953 32.50723 34299 ft 438 kts 338°
2026-04-27 12:03 41.64730 32.48101 34313 ft 438 kts 338°
2026-04-27 12:04 41.70501 32.45479 34318 ft 438 kts 338°
2026-04-27 12:04 41.76264 32.42859 34319 ft 437 kts 338°
2026-04-27 12:05 41.82012 32.40236 34323 ft 436 kts 338°
2026-04-27 12:05 41.87752 32.37611 34324 ft 435 kts 337°
2026-04-27 12:06 41.93479 32.34980 34323 ft 435 kts 337°
2026-04-27 12:06 41.99197 32.32355 34322 ft 434 kts 337°
2026-04-27 12:07 42.04907 32.29730 34322 ft 433 kts 337°
2026-04-27 12:07 42.10567 32.27119 34319 ft 433 kts 337°
2026-04-27 12:08 42.16256 32.24494 34322 ft 432 kts 337°
2026-04-27 12:08 42.21941 32.21870 34324 ft 431 kts 337°
2026-04-27 12:09 42.27608 32.19246 34324 ft 430 kts 336°
2026-04-27 12:09 42.32312 32.17058 34322 ft 430 kts 336°
2026-04-27 12:10 42.37962 32.14438 34321 ft 429 kts 336°
2026-04-27 12:10 42.43602 32.11811 34322 ft 428 kts 336°
2026-04-27 12:11 42.49233 32.09187 34324 ft 427 kts 336°
2026-04-27 12:11 42.54850 32.06555 34321 ft 427 kts 336°
2026-04-27 12:12 42.60463 32.03920 34323 ft 426 kts 336°
2026-04-27 12:12 42.66067 32.01281 34323 ft 426 kts 336°
2026-04-27 12:13 42.71671 31.98653 34323 ft 426 kts 336°
2026-04-27 12:13 42.77277 31.96030 34318 ft 426 kts 336°
2026-04-27 12:14 42.82945 31.93802 34322 ft 429 kts 341°
2026-04-27 12:14 42.88764 31.91932 34319 ft 429 kts 341°
2026-04-27 12:15 42.94569 31.90050 34317 ft 429 kts 341°
2026-04-27 12:15 43.00381 31.88163 34318 ft 429 kts 341°
2026-04-27 12:16 43.06187 31.86286 34320 ft 429 kts 341°
2026-04-27 12:16 43.11995 31.84402 34320 ft 429 kts 341°
2026-04-27 12:17 43.17803 31.82516 34323 ft 429 kts 341°
2026-04-27 12:17 43.23604 31.80623 34326 ft 429 kts 341°
2026-04-27 12:18 43.29368 31.78737 34320 ft 429 kts 341°
2026-04-27 12:18 43.35170 31.76831 34327 ft 428 kts 341°
2026-04-27 12:19 43.40964 31.74918 34324 ft 428 kts 341°
2026-04-27 12:19 43.46760 31.73018 34322 ft 428 kts 341°
2026-04-27 12:20 43.52549 31.71108 34315 ft 427 kts 340°
2026-04-27 12:20 43.58277 31.69173 34322 ft 427 kts 340°
2026-04-27 12:21 43.64042 31.67212 34321 ft 426 kts 340°
2026-04-27 12:21 43.69799 31.65264 34326 ft 426 kts 340°
2026-04-27 12:22 43.75547 31.63313 34326 ft 425 kts 340°
2026-04-27 12:22 43.81292 31.61369 34323 ft 425 kts 340°
2026-04-27 12:23 43.87027 31.59418 34326 ft 424 kts 340°
2026-04-27 12:23 43.92722 31.57470 34324 ft 424 kts 340°
2026-04-27 12:24 43.98451 31.55512 34328 ft 424 kts 340°
2026-04-27 12:24 44.04172 31.53560 34324 ft 423 kts 340°
2026-04-27 12:25 44.09891 31.51613 34323 ft 423 kts 340°
2026-04-27 12:25 44.15602 31.49653 34323 ft 422 kts 340°
2026-04-27 12:26 44.21304 31.47677 34326 ft 422 kts 339°
2026-04-27 12:26 44.27000 31.45710 34326 ft 422 kts 339°
2026-04-27 12:27 44.32660 31.43760 34332 ft 421 kts 339°
2026-04-27 12:27 44.38348 31.41803 34328 ft 421 kts 339°
2026-04-27 12:28 44.44027 31.39845 34326 ft 420 kts 339°
2026-04-27 12:28 44.49693 31.37883 34328 ft 419 kts 339°
2026-04-27 12:29 44.55351 31.35924 34326 ft 418 kts 339°
2026-04-27 12:29 44.61001 31.33973 34312 ft 418 kts 339°
2026-04-27 12:30 44.66607 31.32023 34320 ft 418 kts 339°
2026-04-27 12:30 44.72248 31.30051 34327 ft 418 kts 339°
2026-04-27 12:31 44.77888 31.28078 34321 ft 417 kts 339°
2026-04-27 12:31 44.83525 31.26106 34320 ft 417 kts 339°
2026-04-27 12:32 44.89160 31.24132 34322 ft 417 kts 339°
2026-04-27 12:32 44.94789 31.22155 34320 ft 417 kts 339°
2026-04-27 12:33 45.00417 31.20170 34317 ft 417 kts 339°
2026-04-27 12:33 45.06037 31.18185 34312 ft 416 kts 339°
2026-04-27 12:34 45.11624 31.16211 34312 ft 416 kts 339°
2026-04-27 12:34 45.17244 31.14213 34311 ft 416 kts 339°
2026-04-27 12:35 45.22863 31.12216 34312 ft 416 kts 339°
2026-04-27 12:35 45.28481 31.10220 34305 ft 416 kts 339°
2026-04-27 12:36 45.34077 31.08166 34302 ft 416 kts 339°
2026-04-27 12:36 45.39678 31.06084 34291 ft 416 kts 339°
2026-04-27 12:37 45.45283 31.04006 34291 ft 417 kts 339°
2026-04-27 12:37 45.50897 31.01944 34293 ft 417 kts 339°
2026-04-27 12:38 45.56472 30.99877 34290 ft 417 kts 339°
2026-04-27 12:38 45.62083 30.97791 34291 ft 416 kts 339°
2026-04-27 12:39 45.67688 30.95705 34287 ft 416 kts 339°
2026-04-27 12:39 45.73291 30.93619 34289 ft 416 kts 339°
2026-04-27 12:40 45.78899 30.91531 34275 ft 416 kts 339°
2026-04-27 12:40 45.84493 30.89438 34273 ft 415 kts 339°
2026-04-27 12:41 45.90102 30.87336 34269 ft 415 kts 339°
2026-04-27 12:41 45.95659 30.85215 34268 ft 415 kts 339°
2026-04-27 12:42 46.01226 30.83057 34265 ft 414 kts 339°
2026-04-27 12:42 46.06794 30.80902 34262 ft 414 kts 339°
2026-04-27 12:43 46.12359 30.78756 34258 ft 414 kts 339°
2026-04-27 12:43 46.17925 30.76607 34253 ft 414 kts 339°
2026-04-27 12:44 46.23488 30.74450 34253 ft 414 kts 339°
2026-04-27 12:44 46.29049 30.72284 34253 ft 414 kts 339°
2026-04-27 12:45 46.34608 30.70114 34247 ft 414 kts 339°
2026-04-27 12:45 46.40132 30.67956 34253 ft 414 kts 339°
2026-04-27 12:46 46.45714 30.65856 34248 ft 415 kts 341°
2026-04-27 12:46 46.51365 30.64056 34243 ft 416 kts 342°
2026-04-27 12:47 46.57041 30.62323 34241 ft 416 kts 342°
2026-04-27 12:47 46.62696 30.60524 34235 ft 416 kts 341°
2026-04-27 12:48 46.68340 30.58686 34234 ft 416 kts 341°
2026-04-27 12:48 46.73987 30.56850 34229 ft 416 kts 341°
2026-04-27 12:49 46.79596 30.55021 34228 ft 416 kts 341°
2026-04-27 12:49 46.85244 30.53164 34230 ft 416 kts 341°
2026-04-27 12:50 46.90894 30.51324 34224 ft 416 kts 341°
2026-04-27 12:50 46.96551 30.49472 34224 ft 416 kts 341°
2026-04-27 12:51 47.02200 30.47610 34224 ft 416 kts 341°
2026-04-27 12:51 47.07849 30.45742 34219 ft 416 kts 341°
2026-04-27 12:52 47.13487 30.43876 34213 ft 416 kts 340°
2026-04-27 12:52 47.18752 30.40742 34206 ft 405 kts 326°
2026-04-27 12:53 47.26131 30.34778 34206 ft 406 kts 327°
2026-04-27 12:53 47.31083 30.30781 34202 ft 406 kts 327°
2026-04-27 12:54 47.36035 30.26769 34201 ft 406 kts 327°
2026-04-27 12:54 47.40990 30.22748 34203 ft 407 kts 327°
2026-04-27 12:55 47.45942 30.18724 34202 ft 406 kts 327°
2026-04-27 12:55 47.50876 30.14701 34201 ft 407 kts 327°
2026-04-27 12:56 47.55833 30.10662 34202 ft 406 kts 327°
2026-04-27 12:56 47.60782 30.06614 34203 ft 406 kts 327°
2026-04-27 12:57 47.65725 30.02550 34086 ft 406 kts 327°
2026-04-27 12:57 47.68178 30.00532 33799 ft 401 kts 327°
2026-04-27 12:57 47.70590 29.98549 33400 ft 397 kts 327°
2026-04-27 12:58 47.72994 29.96573 32956 ft 392 kts 327°
2026-04-27 12:58 47.75369 29.94620 32521 ft 388 kts 327°
2026-04-27 12:58 47.77721 29.92684 32095 ft 384 kts 327°
2026-04-27 12:58 47.80046 29.90770 31651 ft 380 kts 327°
2026-04-27 12:59 47.82347 29.88871 31223 ft 376 kts 327°
2026-04-27 12:59 47.84626 29.86984 30793 ft 372 kts 327°
2026-04-27 12:59 47.86853 29.85135 30376 ft 369 kts 327°
2026-04-27 12:59 47.89078 29.83285 29931 ft 365 kts 327°
2026-04-27 13:00 47.91289 29.81450 29511 ft 360 kts 327°
2026-04-27 13:00 47.93458 29.79653 29109 ft 355 kts 327°
2026-04-27 13:00 47.95608 29.77871 28713 ft 351 kts 327°
2026-04-27 13:00 47.97728 29.76108 28320 ft 347 kts 326°
2026-04-27 13:01 47.99817 29.74365 27950 ft 343 kts 326°
2026-04-27 13:01 48.01891 29.72631 27577 ft 340 kts 326°
2026-04-27 13:01 48.03947 29.70913 27197 ft 337 kts 326°
2026-04-27 13:01 48.05979 29.69212 26816 ft 334 kts 326°
2026-04-27 13:02 48.07991 29.67486 26430 ft 331 kts 325°
2026-04-27 13:02 48.09951 29.65724 26059 ft 327 kts 324°
2026-04-27 13:02 48.11880 29.63951 25699 ft 324 kts 324°
2026-04-27 13:02 48.13785 29.62185 25338 ft 320 kts 324°
2026-04-27 13:03 48.15667 29.60438 24989 ft 317 kts 324°
2026-04-27 13:03 48.17535 29.58711 24633 ft 314 kts 324°
2026-04-27 13:03 48.19386 29.57007 24276 ft 311 kts 324°
2026-04-27 13:03 48.21219 29.55318 23925 ft 308 kts 324°
2026-04-27 13:04 48.23032 29.53651 23540 ft 305 kts 324°
2026-04-27 13:04 48.24831 29.51996 23166 ft 300 kts 324°
2026-04-27 13:04 48.26594 29.50377 22813 ft 296 kts 324°
2026-04-27 13:04 48.28348 29.48765 22455 ft 294 kts 324°
2026-04-27 13:05 48.30085 29.47167 22091 ft 292 kts 324°
2026-04-27 13:05 48.31812 29.45581 21750 ft 290 kts 324°
2026-04-27 13:05 48.33526 29.44009 21390 ft 288 kts 324°
2026-04-27 13:05 48.35229 29.42439 21017 ft 286 kts 324°
2026-04-27 13:06 48.36915 29.40881 20676 ft 284 kts 324°
2026-04-27 13:06 48.38596 29.39326 20320 ft 282 kts 324°
2026-04-27 13:06 48.40241 29.37805 19965 ft 281 kts 324°
2026-04-27 13:06 48.41897 29.36272 19615 ft 279 kts 324°
2026-04-27 13:07 48.43543 29.34746 19267 ft 277 kts 324°
2026-04-27 13:07 48.45191 29.33218 18909 ft 276 kts 324°
2026-04-27 13:07 48.46820 29.31704 18566 ft 274 kts 324°
2026-04-27 13:07 48.48440 29.30200 18187 ft 272 kts 324°
2026-04-27 13:08 48.50048 29.28709 17829 ft 270 kts 324°
2026-04-27 13:08 48.51645 29.27225 17478 ft 269 kts 324°
2026-04-27 13:08 48.53241 29.25738 16997 ft 270 kts 324°
2026-04-27 13:08 48.54833 29.24247 16622 ft 268 kts 324°
2026-04-27 13:09 48.56390 29.22795 16283 ft 265 kts 324°
2026-04-27 13:09 48.57953 29.21339 15947 ft 263 kts 324°
2026-04-27 13:09 48.59501 29.19893 15621 ft 261 kts 324°
2026-04-27 13:09 48.61044 29.18452 15285 ft 260 kts 324°
2026-04-27 13:10 48.62580 29.17022 14955 ft 259 kts 324°
2026-04-27 13:10 48.64107 29.15600 14625 ft 257 kts 324°
2026-04-27 13:10 48.65629 29.14179 14302 ft 256 kts 324°
2026-04-27 13:10 48.67139 29.12761 13976 ft 255 kts 324°
2026-04-27 13:11 48.68640 29.11351 13626 ft 254 kts 324°
2026-04-27 13:11 48.70139 29.09947 13284 ft 253 kts 324°
2026-04-27 13:11 48.71613 29.08565 12980 ft 252 kts 324°
2026-04-27 13:11 48.73097 29.07173 12666 ft 251 kts 325°
2026-04-27 13:12 48.74577 29.05781 12342 ft 250 kts 325°
2026-04-27 13:12 48.76046 29.04399 12027 ft 249 kts 325°
2026-04-27 13:12 48.77513 29.03014 11711 ft 248 kts 325°
2026-04-27 13:12 48.78972 29.01634 11403 ft 247 kts 325°
2026-04-27 13:13 48.80425 29.00260 11094 ft 246 kts 326°
2026-04-27 13:13 48.81874 28.98894 10789 ft 245 kts 326°
2026-04-27 13:13 48.83317 28.97530 10479 ft 244 kts 326°
2026-04-27 13:13 48.84758 28.96173 10182 ft 243 kts 326°
2026-04-27 13:14 48.86200 28.94815 10104 ft 247 kts 326°
2026-04-27 13:14 48.87169 28.93900 10035 ft 248 kts 326°
2026-04-27 13:14 48.88631 28.92519 9893 ft 248 kts 326°
2026-04-27 13:14 48.90575 28.90677 9381 ft 248 kts 326°
2026-04-27 13:15 48.92036 28.89296 9038 ft 247 kts 326°
2026-04-27 13:15 48.93494 28.87915 8702 ft 247 kts 326°
2026-04-27 13:15 48.94950 28.86530 8372 ft 247 kts 326°
2026-04-27 13:15 48.96419 28.85166 8043 ft 248 kts 330°
2026-04-27 13:16 48.97497 28.84457 7710 ft 253 kts 338°
2026-04-27 13:16 48.99182 28.83594 7223 ft 259 kts 338°
2026-04-27 13:16 49.00885 28.82734 6877 ft 257 kts 338°
2026-04-27 13:16 49.02578 28.81879 6362 ft 254 kts 338°
2026-04-27 13:17 49.04256 28.81026 5613 ft 254 kts 338°
2026-04-27 13:17 49.05928 28.80172 4915 ft 253 kts 338°
2026-04-27 13:17 49.07597 28.79321 4273 ft 249 kts 338°
2026-04-27 13:17 49.09191 28.78509 4035 ft 232 kts 338°
2026-04-27 13:18 49.10678 28.77750 3919 ft 221 kts 337°
2026-04-27 13:18 49.12124 28.77010 3803 ft 218 kts 337°
2026-04-27 13:18 49.13488 28.76071 3666 ft 212 kts 319°
2026-04-27 13:18 49.14561 28.74624 3411 ft 207 kts 315°
2026-04-27 13:19 49.15606 28.73169 3133 ft 198 kts 315°
2026-04-27 13:19 49.16590 28.71823 2894 ft 182 kts 316°
2026-04-27 13:19 49.17490 28.70599 2653 ft 162 kts 315°
2026-04-27 13:19 49.18289 28.69512 2447 ft 145 kts 315°
2026-04-27 13:20 49.19013 28.68526 2231 ft 135 kts 315°
2026-04-27 13:20 49.19703 28.67585 2060 ft 131 kts 315°
2026-04-27 13:20 49.20378 28.66666 1875 ft 130 kts 315°
2026-04-27 13:20 49.21052 28.65746 1675 ft 131 kts 313°
2026-04-27 13:21 49.21741 28.64806 1478 ft 133 kts 314°
2026-04-27 13:21 49.22425 28.63867 1257 ft 132 kts 314°
2026-04-27 13:21 49.23112 28.62925 1069 ft 133 kts 314°
2026-04-27 13:21 49.23776 28.62022 976 ft 116 kts 315°
2026-04-27 13:22 49.24271 28.61359 982 ft 70 kts 318°
2026-04-27 13:22 49.24477 28.61041 976 ft 17 kts 271°
2026-04-27 13:22 49.24413 28.60923 976 ft 12 kts 231°
2026-04-27 13:22 49.24405 28.60906 972 ft 1 kts 231°
2026-04-27 13:23 49.24390 28.60878 986 ft 6 kts 231°
2026-04-27 13:23 49.24361 28.60824 980 ft 7 kts 229°
2026-04-27 13:23 49.24350 28.60758 978 ft 7 kts 297°
2026-04-27 13:23 49.24381 28.60698 980 ft 7 kts 284°
2026-04-27 13:24 49.24373 28.60660 975 ft 1 kts 236°
2026-04-27 13:24 49.24372 28.60658 975 ft 0 kts 236°